[[{"header":{"parameterUnit":"m.s-1","parameterCategory":1,"la1":30.2991,"la2":30.254,"lo1":-89.0895,"lo2":-89.0444,"dy":0.0017,"dx":0.0017,"nx":28,"ny":28,"refTime":"2025-04-06T03:00:00:Z","depth":0,"parameterNumber":2,"parameterNumberName":"U-component_of_WINDS"},"data":[0,0,0,0,0,0,0,0,0,0,0,0,0,0,0,0,0,0,0,0,0,0,0,0,0,0,0,0,0,0,0,0,0,0,0,0,0,0,0,0,0,0,0,0,0,0,0,0,0,0,0,0,0,0,0,0,0,0,2.1452,2.1451,0,2.1398,2.1398,2.1397,2.1354,2.1354,2.1353,2.1353,2.1294,2.1293,2.1292,0,0,0,0,0,0,0,0,0,0,0,0,0,2.1514,2.1513,2.1452,2.1451,2.1451,2.1398,2.1398,2.1397,2.1354,2.1354,2.1353,2.1353,2.1294,2.1293,2.1292,0,0,0,0,0,0,0,0,0,0,0,0,0,2.1476,2.1513,2.1452,2.1423,2.142,2.1398,2.1398,2.1397,2.1355,2.1354,2.1353,2.1353,2.1295,2.1293,2.1291,2.1293,0,0,2.1286,2.1285,0,0,0,0,0,0,0,0,2.1479,2.1474,2.1428,2.1425,2.1422,2.1382,2.1398,2.1362,2.1355,2.1379,2.1353,2.1352,2.1324,2.1319,2.1311,2.129,2.1287,2.1286,2.1285,2.1284,2.1283,0,0,0,0,0,0,0,2.1481,2.1476,2.1431,2.1427,2.1424,2.1412,2.1406,2.1391,2.1355,2.1377,2.1374,2.1368,2.1322,2.1312,2.1309,2.1287,2.1286,2.1284,2.1283,2.1282,2.1264,2.1265,0,0,0,0,0,0,2.1489,2.1479,2.1432,2.1429,2.1449,2.1411,2.1404,2.1396,2.1356,2.1349,2.1369,2.1367,2.1316,2.1311,2.1307,2.1305,2.1284,2.1282,2.1281,2.1263,2.1264,2.1265,0,0,0,0,0,0,2.149,2.1485,2.1434,2.1453,2.1446,2.1411,2.1401,2.1395,2.1386,2.1349,2.1343,2.1366,2.1315,2.1309,2.1297,2.1303,2.1281,2.128,2.1263,2.1264,2.1264,2.1303,0,0,0,0,0,0,2.1492,2.1486,2.1487,2.1453,2.1445,2.1427,2.1402,2.1394,2.1383,2.1379,2.1345,2.1339,2.1314,2.13,2.1295,2.13,2.1278,2.1262,2.1263,2.1264,2.1301,2.1305,2.1308,0,0,0,0,0,2.1495,2.1499,2.1487,2.1482,2.1446,2.1427,2.1422,2.1395,2.1384,2.1384,2.1361,2.134,2.1303,2.1299,2.1293,2.1297,2.1261,2.1263,2.1264,2.1299,2.1304,2.1308,0,0,0,0,0,0,2.1532,2.1494,2.148,2.1474,2.1455,2.142,2.1419,2.1401,2.1383,2.138,2.1346,2.1339,2.133,2.1312,2.1308,2.1297,2.1279,2.128,2.1308,2.1312,2.1316,2.132,2.1277,0,0,0,0,0,2.1541,2.153,2.1496,2.1494,2.1485,2.1454,2.1445,2.1426,2.1403,2.1394,2.137,2.1348,2.1332,2.1321,2.1304,2.1299,2.129,2.1299,2.1303,2.1306,2.1306,2.1301,2.1305,2.1269,2.1269,2.1269,0,0,2.1556,2.1534,2.1529,2.1501,2.1483,2.1472,2.1447,2.1436,2.1427,2.1392,2.1379,2.1361,2.1334,2.1325,2.132,2.131,2.1314,2.1307,2.131,2.1309,2.1303,2.1306,2.1309,2.127,2.127,2.127,0,0,2.1578,2.1561,2.1557,2.1541,2.1515,2.1494,2.1494,2.1462,2.1449,2.1436,2.1409,2.1398,2.137,2.1352,2.1339,2.1356,2.1335,2.1351,2.137,2.1366,2.1369,2.1371,2.1376,2.1378,2.1352,2.1352,2.1352,0,2.1601,2.1584,2.1557,2.1548,2.1536,2.1506,2.1501,2.1486,2.1455,2.1447,2.1438,2.1403,2.1382,2.1368,2.1373,2.1364,2.1361,2.1354,2.1371,2.1373,2.1374,2.1379,2.1381,2.1354,2.1353,2.1353,2.1353,0,2.1612,2.1601,2.16,2.1573,2.1562,2.1555,2.1526,2.1517,2.15,2.148,2.1466,2.1441,2.1419,2.1414,2.1396,2.1398,2.1392,2.1377,2.1359,2.138,2.1384,2.1385,2.1357,2.1356,2.1355,2.1355,0,0,2.1655,2.1615,2.1615,2.1602,2.1572,2.1562,2.1554,2.1533,2.1525,2.1506,2.1497,2.1475,2.1461,2.1446,2.1426,2.1423,2.1437,2.1408,2.1406,2.1413,2.1436,2.1447,2.1449,2.1424,2.1424,2.1424,2.1438,0,2.1672,2.1657,2.1633,2.1624,2.1613,2.1585,2.1577,2.1557,2.1539,2.1526,2.1505,2.149,2.1473,2.1464,2.1459,2.1436,2.1441,2.1435,2.1414,2.1413,2.142,2.1451,2.1463,2.1477,2.1439,2.1439,2.144,0,2.169,2.1673,2.1664,2.1635,2.1629,2.1623,2.1602,2.1591,2.1567,2.1554,2.1539,2.1517,2.1506,2.1491,2.1473,2.147,2.146,2.1448,2.1448,2.1443,2.1427,2.1447,2.1481,2.1482,2.1442,2.1442,2.1441,0,2.1721,2.1697,2.1688,2.1678,2.1644,2.164,2.1626,2.1602,2.1591,2.1572,2.1565,2.1545,2.1533,2.1518,2.1491,2.1483,2.1477,2.1459,2.1464,2.1465,2.1463,2.1463,2.1494,2.1459,2.1459,2.1459,2.1459,0,2.1742,2.1737,2.1702,2.1696,2.169,2.1662,2.1656,2.1639,2.1618,2.1608,2.1582,2.1573,2.1539,2.1526,2.1505,2.1493,2.1489,2.1477,2.1471,2.1478,2.148,2.147,2.1468,2.1459,2.1459,2.1459,2.1459,0,2.1776,2.1752,2.174,2.171,2.1702,2.1699,2.1672,2.1665,2.1646,2.1633,2.1629,2.1598,2.1581,2.1553,2.1527,2.1513,2.1505,2.1496,2.1513,2.151,2.1516,2.1515,2.1541,2.1542,2.1507,2.1508,2.1508,0,2.179,2.1786,2.1756,2.1748,2.1735,2.1722,2.1711,2.1684,2.1673,2.1647,2.1643,2.1624,2.1607,2.1581,2.1555,2.1535,2.1525,2.1536,2.1522,2.1529,2.1524,2.1524,2.1523,2.1538,2.1539,2.1539,2.154,0,2.1818,2.1806,2.1792,2.1774,2.1762,2.1746,2.1729,2.1724,2.1692,2.1682,2.1665,2.1652,2.1627,2.1608,2.1585,2.1568,2.1548,2.1545,2.1544,2.1551,2.1561,2.1555,2.1521,2.1544,2.1543,2.1543,2.1543,2.1543,2.1841,2.1836,2.1814,2.1799,2.1784,2.1769,2.1761,2.1741,2.1727,2.1705,2.1689,2.1673,2.165,2.1617,2.1602,2.1588,2.1579,2.1579,2.1578,2.1579,2.1581,2.1565,2.1583,2.1583,2.1583,2.1583,2.1583,0,2.1867,2.1852,2.1838,2.1816,2.1804,2.1788,2.1769,2.1759,2.1746,2.1726,2.1711,2.1691,2.1673,2.1647,2.1626,2.162,2.161,2.1615,2.1615,2.1611,2.159,2.1592,2.1624,2.1624,2.1624,2.1624,2.1624,2.1624,2.1879,2.1869,2.1855,2.1838,2.1822,2.1807,2.1797,2.1782,2.1767,2.1746,2.1732,2.1715,2.1693,2.167,2.1653,2.1645,2.1638,2.1646,2.1636,2.1617,2.1613,2.1609,2.1611,2.1645,2.1645,2.1658,2.1658,2.1658]},{"header":{"parameterUnit":"m.s-1","parameterCategory":1,"la1":30.2991,"la2":30.254,"lo1":-89.0895,"lo2":-89.0444,"dy":0.0017,"dx":0.0017,"nx":28,"ny":28,"refTime":"2025-04-06T03:00:00:Z","depth":0,"parameterNumber":3,"parameterNumberName":"V-component_of_WINDS"},"data":[0,0,0,0,0,0,0,0,0,0,0,0,0,0,0,0,0,0,0,0,0,0,0,0,0,0,0,0,0,0,0,0,0,0,0,0,0,0,0,0,0,0,0,0,0,0,0,0,0,0,0,0,0,0,0,0,0,0,-5.9408,-5.9409,0,-5.9511,-5.9513,-5.9514,-5.9433,-5.943,-5.9426,-5.9423,-5.9525,-5.953,-5.9536,0,0,0,0,0,0,0,0,0,0,0,0,0,-5.9138,-5.9144,-5.9408,-5.9409,-5.9411,-5.9511,-5.9513,-5.9514,-5.9434,-5.943,-5.9426,-5.9422,-5.9523,-5.953,-5.9537,0,0,0,0,0,0,0,0,0,0,0,0,0,-5.925,-5.9145,-5.9408,-5.9383,-5.9382,-5.9511,-5.9513,-5.9514,-5.9435,-5.943,-5.9424,-5.942,-5.952,-5.9529,-5.9538,-5.9696,0,0,-5.9565,-5.9569,0,0,0,0,0,0,0,0,-5.9244,-5.926,-5.9385,-5.9385,-5.9384,-5.9454,-5.9455,-5.9575,-5.9436,-5.9415,-5.9423,-5.9417,-5.9505,-5.9515,-5.9545,-5.97,-5.9705,-5.9566,-5.9571,-5.9575,-5.9577,0,0,0,0,0,0,0,-5.9236,-5.9255,-5.9449,-5.9387,-5.9386,-5.9366,-5.9376,-5.9477,-5.9487,-5.9416,-5.941,-5.9424,-5.9504,-5.9537,-5.9547,-5.9706,-5.9565,-5.9573,-5.9579,-5.9582,-5.9997,-6.0003,0,0,0,0,0,0,-5.9231,-5.9249,-5.9445,-5.9452,-5.93,-5.9375,-5.9386,-5.9437,-5.9486,-5.9489,-5.9428,-5.942,-5.9525,-5.9537,-5.955,-5.9739,-5.9575,-5.9583,-5.9588,-5.9991,-5.9998,-6.0005,0,0,0,0,0,0,-5.9226,-5.925,-5.9441,-5.9349,-5.9372,-5.9385,-5.9443,-5.9442,-5.9475,-5.9495,-5.9496,-5.9461,-5.9521,-5.9538,-5.9661,-5.9742,-5.9587,-5.9595,-5.9985,-5.9994,-6.0001,-6.0118,0,0,0,0,0,0,-5.9218,-5.9248,-5.9309,-5.9351,-5.9377,-5.9551,-5.9448,-5.9447,-5.9491,-5.9481,-5.9526,-5.9529,-5.9518,-5.9648,-5.967,-5.9751,-5.9602,-5.9977,-5.9989,-5.9999,-6.0107,-6.013,-6.0149,0,0,0,0,0,-5.9209,-5.9336,-5.9312,-5.9337,-5.9454,-5.9556,-5.9571,-5.9557,-5.9498,-5.9559,-5.9572,-5.9527,-5.973,-5.9661,-5.9685,-5.977,-5.9972,-5.9985,-5.9998,-6.0098,-6.0125,-6.0149,0,0,0,0,0,0,-5.9301,-5.9341,-5.9315,-5.946,-5.9506,-5.9542,-5.9619,-5.9587,-5.9649,-5.9636,-5.9616,-5.9627,-5.9756,-5.9775,-5.9698,-5.9926,-5.9841,-5.9859,-5.9909,-5.9936,-5.9956,-5.9949,-5.9609,0,0,0,0,0,-5.9339,-5.942,-5.945,-5.9575,-5.96,-5.9606,-5.965,-5.9636,-5.9681,-5.9699,-5.9721,-5.9766,-5.984,-5.9889,-5.9957,-6.011,-6.0119,-6.018,-6.0201,-6.0218,-6.0234,-6.0317,-6.0345,-6.0047,-6.0047,-6.0046,0,0,-5.9417,-5.9449,-5.9501,-5.9595,-5.9628,-5.9712,-5.9622,-5.9714,-5.9775,-5.9713,-5.9831,-5.9849,-5.9897,-6.0036,-6.0098,-6.0056,-6.0319,-6.0235,-6.0248,-6.0255,-6.0333,-6.0361,-6.0386,-6.0055,-6.0054,-6.0052,0,0,-5.9601,-5.9634,-5.9742,-5.9778,-5.9831,-5.9834,-5.9861,-5.9903,-5.9913,-6.0032,-5.9987,-6.0059,-6.0186,-6.0223,-6.0258,-6.0459,-6.042,-6.0482,-6.0591,-6.0672,-6.0696,-6.0716,-6.0788,-6.0815,-6.0498,-6.0498,-6.0498,0,-5.9691,-5.9816,-5.9801,-5.9898,-5.994,-5.989,-5.9999,-6.0034,-6.0106,-6.0136,-6.0088,-6.0248,-6.0277,-6.0424,-6.0474,-6.0504,-6.0533,-6.0477,-6.0694,-6.0714,-6.0733,-6.0802,-6.0829,-6.0505,-6.0505,-6.0504,-6.0503,0,-5.9924,-6.0012,-6.0093,-6.0166,-6.0218,-6.032,-6.032,-6.0374,-6.0356,-6.0365,-6.0486,-6.0519,-6.0595,-6.0629,-6.0611,-6.0774,-6.0746,-6.0697,-6.0611,-6.0769,-6.0833,-6.0859,-6.0516,-6.0513,-6.0511,-6.0509,0,0,-6.0168,-6.0234,-6.0264,-6.0297,-6.0352,-6.0419,-6.0519,-6.0595,-6.0642,-6.0693,-6.0776,-6.0886,-6.0841,-6.0882,-6.0868,-6.0939,-6.1097,-6.0881,-6.0881,-6.092,-6.1279,-6.1316,-6.1347,-6.1072,-6.1077,-6.1081,-6.1275,0,-6.0356,-6.0532,-6.0522,-6.0687,-6.0768,-6.0722,-6.0809,-6.0852,-6.0863,-6.0932,-6.0943,-6.1022,-6.0956,-6.0981,-6.1049,-6.1063,-6.1169,-6.1049,-6.1148,-6.1152,-6.1138,-6.138,-6.1419,-6.1601,-6.13,-6.1304,-6.1307,0,-6.0598,-6.066,-6.0834,-6.0879,-6.0912,-6.0991,-6.106,-6.1127,-6.1175,-6.1178,-6.1224,-6.1199,-6.13,-6.1212,-6.135,-6.1269,-6.1309,-6.1322,-6.1329,-6.1337,-6.1239,-6.1395,-6.1658,-6.1686,-6.1346,-6.1343,-6.134,0,-6.0759,-6.0886,-6.1007,-6.1037,-6.1092,-6.1148,-6.1173,-6.1216,-6.1263,-6.1323,-6.1353,-6.1423,-6.1462,-6.1516,-6.1511,-6.1447,-6.1651,-6.1563,-6.1656,-6.1657,-6.1701,-6.1698,-6.1974,-6.1727,-6.1726,-6.1726,-6.1725,0,-6.097,-6.1078,-6.1081,-6.1155,-6.1274,-6.1262,-6.138,-6.1399,-6.1438,-6.1515,-6.1478,-6.1551,-6.1539,-6.1611,-6.1607,-6.1723,-6.174,-6.1745,-6.1742,-6.1748,-6.1748,-6.1774,-6.1761,-6.1733,-6.1732,-6.173,-6.1729,0,-6.117,-6.1176,-6.1305,-6.1347,-6.136,-6.1447,-6.1482,-6.1552,-6.1561,-6.1658,-6.168,-6.1693,-6.1777,-6.1777,-6.1871,-6.1869,-6.201,-6.1993,-6.1995,-6.1991,-6.2085,-6.2076,-6.2387,-6.2427,-6.2154,-6.2157,-6.2159,0,-6.1303,-6.1386,-6.1438,-6.1488,-6.1517,-6.1597,-6.1645,-6.1636,-6.1688,-6.175,-6.1812,-6.1893,-6.1956,-6.2091,-6.2109,-6.2181,-6.2165,-6.227,-6.2176,-6.218,-6.2167,-6.2163,-6.2171,-6.2288,-6.2291,-6.2293,-6.2295,0,-6.154,-6.154,-6.1611,-6.1685,-6.1744,-6.1801,-6.1853,-6.1896,-6.1893,-6.1952,-6.2038,-6.2088,-6.2186,-6.2266,-6.2336,-6.2361,-6.2328,-6.2325,-6.235,-6.2357,-6.2355,-6.2358,-6.2045,-6.2318,-6.2315,-6.2314,-6.2313,-6.2312,-6.1711,-6.1783,-6.1832,-6.1913,-6.1952,-6.2003,-6.2071,-6.2089,-6.2161,-6.2241,-6.2232,-6.2328,-6.2374,-6.2465,-6.2496,-6.257,-6.2534,-6.2571,-6.258,-6.2589,-6.26,-6.2344,-6.2583,-6.2582,-6.2582,-6.2581,-6.2581,0,-6.1947,-6.1976,-6.2051,-6.2127,-6.2191,-6.2157,-6.2214,-6.2269,-6.2355,-6.2402,-6.2466,-6.2565,-6.2643,-6.2668,-6.2743,-6.2798,-6.2785,-6.2818,-6.2813,-6.282,-6.2628,-6.2599,-6.2827,-6.2827,-6.2827,-6.2827,-6.2827,-6.2827,-6.2077,-6.2196,-6.2202,-6.2341,-6.2369,-6.2465,-6.25,-6.2546,-6.2584,-6.2697,-6.2763,-6.2779,-6.2817,-6.2895,-6.2965,-6.297,-6.2999,-6.3039,-6.3038,-6.2858,-6.2833,-6.281,-6.2782,-6.3045,-6.3046,-6.3224,-6.3225,-6.3227]}]]